Temp
83 83 84 74 61 61 59 71 81 79 77 84 87 82 74 77 76 61 82 85 83 81 82 83 83 83 83 83 83 83 83 83 83 83 83 83 84 84 83 83 84 84 84 84 84 84 84 84 84
86 83 72 67 58 55 59 70 76 82 83 84 83 83 76 71 81 79 80 85 85 82 81 82 82 83 83 83 83 83 84 84 83 83 83 83 84 84 84 83 84 83 84 84 84 84 84 84 84
87 92 72 64 59 56 58 71 80 85 85 84 82 87 79 73 81 82 86 87 84 82 82 81 83 83 83 83 83 83 84 84 84 83 83 83 84 84 84 84 84 84 84 85 85 85 85 84 84
89 75 72 64 61 66 71 78 86 82 85 86 85 78 83 88 85 87 89 87 85 83 80 82 83 83 83 83 84 84 84 83 83 83 84 84 84 84 83 83 84 84 84 84 84 84 84 83 83
82 71 63 65 68 71 80 84 86 81 82 83 84 75 77 87 91 90 89 89 85 80 81 82 83 83 83 84 84 84 84 84 83 83 84 84 84 84 84 85 84 84 84 84 84 84 84 84 83
78 77 66 66 71 75 82 82 84 83 84 84 80 77 77 90 90 90 91 89 84 80 81 82 83 83 83 84 84 83 83 83 83 84 84 84 84 84 84 84 84 84 84 84 84 83 84 84 83
82 74 71 71 71 76 77 82 78 82 82 82 85 74 79 86 91 92 91 86 83 83 81 80 81 83 84 84 84 84 84 84 84 84 84 84 84 83 82 79 82 84 85 84 84 84 84 83 84
88 78 70 75 73 72 81 83 84 81 82 90 88 72 71 85 90 88 86 84 82 82 81 80 80 79 78 80 84 84 84 83 84 84 83 84 80 80 80 79 81 83 84 84 84 84 83 83 83
92 69 68 73 76 77 86 83 90 93 88 90 88 83 86 90 91 85 81 82 83 83 82 82 81 79 77 77 81 83 84 84 84 82 83 79 73 73 76 78 80 79 84 85 84 84 84 83 83
78 71 76 88 86 82 86 86 87 83 84 82 82 87 90 89 88 85 81 80 81 81 82 82 82 81 80 83 77 76 78 77 76 76 75 74 73 71 75 79 82 82 82 85 84 83 83 84 79
86 72 85 89 91 91 84 84 91 82 75 81 78 82 86 86 87 87 84 85 84 84 85 83 83 82 82 82 77 75 74 74 73 74 72 73 76 74 74 71 72 74 80 79 81 78 77 78 75
81 77 77 84 92 90 84 87 83 85 83 87 87 87 86 84 83 84 86 88 87 86 87 85 85 84 81 80 78 75 74 76 75 73 74 73 71 72 72 71 73 73 74 75 76 76 76 76 74
80 77 78 80 84 86 91 83 84 84 89 90 89 88 85 85 85 86 87 88 87 85 89 86 86 82 81 78 76 74 73 74 73 73 74 73 71 71 71 72 73 75 77 77 76 74 75 74 75
80 75 75 75 77 77 82 85 85 86 90 88 87 85 85 86 86 89 86 84 84 85 87 87 83 84 81 78 76 75 74 73 74 73 75 74 73 73 73 73 73 74 75 75 75 73 73 73 77
83 72 71 71 77 78 80 79 79 86 89 86 85 85 86 87 87 86 85 85 85 89 87 85 83 83 81 78 76 74 74 75 74 75 76 76 75 73 74 73 73 74 75 75 75 75 73 72 73
76 72 61 75 80 83 76 66 81 86 86 83 85 86 86 85 87 88 87 90 87 85 87 85 90 84 80 77 76 76 76 75 75 75 76 76 75 74 73 73 73 74 74 73 73 72 71 71 71
74 62 63 71 81 79 74 67 79 85 86 82 83 84 85 85 85 87 90 89 88 84 83 83 84 83 81 79 78 76 76 75 76 77 75 77 77 77 73 74 74 75 75 72 72 72 72 72 70
61 59 69 67 75 77 68 67 75 76 81 84 82 84 84 85 86 88 88 90 87 87 87 83 83 82 81 79 75 75 75 74 76 75 77 77 75 76 74 74 74 74 73 72 72 72 72 71 70
72 73 70 70 78 74 68 65 72 76 73 79 79 81 82 85 88 90 91 90 87 86 84 82 80 80 78 74 73 73 76 73 74 75 77 77 76 76 74 73 73 73 72 72 72 71 70 71 71
74 71 70 75 77 72 69 67 68 75 69 72 81 80 82 85 89 89 85 89 87 84 84 80 82 80 80 77 75 74 73 74 74 75 75 75 75 74 75 73 72 73 71 72 73 72 69 70 71
72 64 71 69 77 78 69 59 62 68 73 75 79 85 86 86 88 87 86 88 86 84 82 82 82 81 81 80 75 75 74 74 73 73 73 76 75 75 75 74 73 73 72 71 71 71 71 68 69
65 83 80 77 72 60 70 54 61 69 70 78 78 77 85 86 89 89 88 86 87 85 86 84 83 81 80 80 76 74 71 70 72 73 73 73 76 77 78 76 75 73 73 72 71 73 71 71 68
73 83 76 79 72 68 65 59 60 68 66 74 81 81 78 89 90 88 90 89 90 89 87 85 83 81 82 81 77 75 74 73 74 74 73 73 75 78 79 77 75 74 73 73 72 71 71 71 68
87 79 80 75 68 56 59 60 62 61 66 73 77 80 82 86 91 91 92 92 89 90 89 85 82 81 81 80 78 76 75 74 73 73 74 73 74 76 77 77 75 75 74 74 73 72 71 70 71
75 65 55 53 57 52 59 60 66 76 74 78 74 75 76 82 83 87 85 84 83 87 88 85 82 80 80 80 79 77 76 75 75 74 74 74 73 74 75 76 76 74 74 75 74 73 72 71 71
73 69 56 47 51 51 61 57 66 73 75 76 79 79 80 76 74 76 79 74 74 90 87 85 81 78 80 79 78 78 77 75 76 75 75 74 73 75 75 76 75 76 75 74 74 72 73 73 72
74 65 72 59 54 53 60 63 74 73 71 73 80 83 78 75 72 69 78 72 72 85 83 82 79 77 77 78 78 77 77 77 75 76 76 75 75 76 74 75 74 74 74 72 72 72 72 71 71
77 74 60 54 47 46 52 58 58 61 61 68 79 79 76 74 76 74 74 76 85 87 83 80 77 75 74 76 76 73 72 73 72 74 73 72 71 71 71 72 73 71 71 70 69 69 71 71 71
74 67 65 59 52 51 48 55 62 63 65 69 67 68 80 80 80 78 80 79 79 80 79 77 76 74 73 72 73 73 71 72 72 71 72 72 72 71 70 70 69 69 69 69 69 67 68 70 71
81 75 72 58 53 55 59 57 73 68 68 69 69 70 80 80 79 80 78 78 77 76 75 74 74 74 73 73 73 72 72 72 71 71 71 71 70 70 71 70 68 68 69 70 70 69 70 70 69
MSLP
1006.60 1007.76 1007.42 1006.62 1009.25 1009.29 1007.57 1005.37 1003.26 1003.20 1003.40 1003.72 1003.80 1004.44 1006.30 1006.81 1007.16 1009.46 1010.10 1010.82 1011.81 1012.71 1013.17 1013.64 1014.07 1014.49 1014.96 1015.25 1015.52 1015.68 1015.90 1016.08 1016.11 1016.24 1016.28 1016.49 1016.82 1016.85 1016.88 1016.86 1016.81 1016.99 1017.17 1017.22 1017.42 1017.55 1017.62 1017.70 1017.96
1006.40 1007.57 1008.22 1009.55 1010.12 1009.91 1007.82 1005.61 1003.76 1003.45 1003.66 1003.70 1004.30 1005.03 1006.05 1007.78 1007.59 1008.97 1010.04 1010.94 1011.74 1012.61 1013.29 1013.83 1014.23 1014.61 1015.02 1015.36 1015.62 1015.84 1016.05 1016.17 1016.26 1016.29 1016.44 1016.71 1017.05 1017.12 1017.13 1017.18 1017.20 1017.44 1017.40 1017.54 1017.64 1017.73 1017.76 1017.83 1018.11
1005.86 1005.48 1008.00 1009.13 1009.76 1008.96 1007.60 1005.37 1004.20 1003.75 1004.20 1003.83 1004.62 1004.79 1006.55 1008.23 1008.85 1009.04 1010.15 1010.79 1011.80 1012.80 1013.42 1013.99 1014.36 1014.76 1015.09 1015.46 1015.71 1015.91 1016.18 1016.33 1016.33 1016.39 1016.58 1016.88 1017.17 1017.26 1017.26 1017.30 1017.41 1017.56 1017.72 1017.71 1017.81 1017.94 1017.96 1017.95 1018.19
1004.82 1006.26 1007.74 1008.14 1008.37 1007.21 1005.90 1004.80 1003.87 1004.24 1004.53 1004.77 1004.75 1005.96 1007.29 1007.41 1008.22 1009.47 1010.06 1011.07 1011.87 1012.79 1013.61 1014.12 1014.54 1014.88 1015.21 1015.58 1015.82 1016.07 1016.28 1016.36 1016.41 1016.60 1016.81 1016.99 1017.14 1017.22 1017.34 1017.36 1017.47 1017.67 1017.90 1017.94 1017.96 1018.08 1018.22 1018.19 1018.28
1005.10 1006.20 1006.99 1007.09 1006.74 1006.66 1004.94 1004.26 1003.85 1004.59 1004.67 1005.11 1005.30 1007.03 1007.57 1008.17 1008.40 1009.15 1010.03 1010.78 1011.82 1012.95 1013.66 1014.33 1014.68 1014.99 1015.34 1015.63 1015.93 1016.17 1016.27 1016.35 1016.52 1016.74 1016.95 1017.08 1017.23 1017.30 1017.36 1017.45 1017.58 1017.79 1017.99 1018.11 1018.21 1018.12 1018.27 1018.41 1018.36
1004.56 1004.80 1005.55 1005.75 1005.54 1005.57 1004.80 1004.33 1004.16 1004.25 1004.60 1005.20 1005.99 1006.97 1007.79 1008.16 1008.62 1009.20 1009.78 1010.67 1011.70 1012.71 1013.53 1014.20 1014.71 1015.08 1015.39 1015.66 1015.97 1016.16 1016.30 1016.50 1016.63 1016.83 1017.03 1017.25 1017.41 1017.47 1017.48 1017.47 1017.66 1017.87 1017.97 1018.10 1018.23 1018.16 1018.23 1018.38 1018.51
1003.62 1004.43 1004.65 1004.38 1004.61 1004.65 1004.65 1004.35 1004.53 1004.43 1004.57 1005.37 1006.13 1007.13 1008.05 1008.31 1008.55 1009.03 1009.78 1011.37 1012.51 1012.89 1013.28 1014.09 1014.70 1015.08 1015.40 1015.74 1016.01 1016.15 1016.36 1016.55 1016.68 1016.83 1017.09 1017.30 1017.41 1017.49 1017.64 1017.80 1017.65 1017.74 1017.91 1018.08 1018.22 1018.28 1018.19 1018.25 1018.44
1002.13 1003.35 1003.92 1003.39 1003.76 1004.26 1004.32 1003.90 1004.15 1004.20 1004.31 1004.96 1005.58 1007.11 1007.70 1008.14 1008.50 1009.24 1010.66 1011.67 1012.54 1013.49 1013.77 1014.06 1014.70 1015.19 1015.57 1015.84 1016.03 1016.15 1016.33 1016.60 1016.70 1016.74 1017.06 1017.31 1017.67 1017.65 1017.66 1017.71 1017.64 1017.55 1017.72 1017.91 1018.01 1018.15 1018.13 1018.11 1018.17
1001.34 1003.31 1003.76 1003.07 1002.80 1003.41 1003.46 1003.51 1003.34 1003.36 1003.99 1004.64 1005.27 1006.05 1007.08 1007.84 1008.56 1009.72 1010.83 1011.78 1012.31 1013.23 1013.65 1014.03 1014.42 1015.06 1015.44 1015.80 1015.96 1016.06 1016.33 1016.63 1016.74 1016.77 1016.94 1017.34 1017.58 1017.51 1017.51 1017.51 1017.55 1017.53 1017.50 1017.62 1017.81 1017.93 1017.94 1017.89 1017.80
1001.66 1002.94 1003.25 1001.88 1002.02 1002.58 1002.89 1002.87 1003.11 1003.55 1004.01 1005.21 1006.00 1006.67 1007.18 1007.88 1008.51 1009.78 1010.65 1011.33 1012.09 1012.72 1013.17 1013.53 1013.80 1014.53 1015.08 1015.38 1015.75 1016.00 1016.23 1016.51 1016.74 1016.61 1016.90 1017.31 1017.27 1017.30 1017.16 1017.13 1017.14 1017.15 1017.37 1017.38 1017.52 1017.91 1017.72 1017.46 1017.55
1001.52 1002.48 1002.11 1001.85 1001.90 1002.12 1002.72 1003.05 1003.05 1003.70 1004.64 1004.98 1005.87 1006.68 1007.28 1008.14 1008.45 1008.98 1009.69 1010.20 1010.96 1011.54 1012.38 1012.97 1013.48 1013.81 1014.45 1014.82 1015.46 1015.89 1016.14 1016.40 1016.62 1016.62 1016.91 1017.07 1017.16 1017.12 1017.03 1017.17 1017.21 1017.04 1017.03 1017.13 1017.30 1017.57 1017.54 1017.26 1017.52
1001.76 1003.99 1005.65 1002.82 1002.23 1002.40 1002.89 1003.29 1003.49 1003.66 1004.16 1004.94 1005.91 1006.68 1007.38 1007.78 1008.33 1008.75 1009.42 1009.75 1010.44 1011.18 1011.80 1012.46 1013.00 1013.48 1014.04 1014.45 1015.02 1015.43 1015.86 1016.05 1016.36 1016.61 1016.65 1017.04 1017.20 1017.02 1016.97 1017.07 1016.99 1016.87 1016.84 1016.96 1017.31 1017.08 1017.11 1017.22 1017.19
1003.04 1004.68 1006.78 1003.59 1004.15 1004.06 1003.05 1003.52 1003.53 1003.91 1004.22 1005.14 1006.10 1006.88 1007.40 1007.82 1008.08 1008.30 1008.73 1009.36 1010.15 1010.66 1011.21 1011.98 1012.50 1013.09 1013.47 1014.20 1014.78 1015.36 1015.68 1015.84 1016.22 1016.53 1016.44 1016.66 1017.05 1017.13 1016.92 1016.79 1016.78 1016.61 1016.55 1016.63 1016.80 1016.75 1016.61 1016.87 1016.98
1004.82 1005.36 1007.09 1007.35 1006.07 1006.72 1004.85 1003.93 1003.67 1004.37 1004.54 1005.45 1006.19 1006.81 1007.17 1007.59 1007.79 1008.15 1008.59 1009.15 1009.48 1009.93 1010.72 1011.46 1012.11 1012.74 1013.14 1013.95 1014.36 1014.86 1015.30 1015.57 1015.89 1016.22 1016.14 1016.26 1016.49 1016.69 1016.69 1016.64 1016.65 1016.60 1016.35 1016.35 1016.34 1016.34 1016.39 1016.56 1016.38
1004.77 1006.65 1008.50 1007.04 1006.56 1006.33 1005.35 1004.50 1004.54 1004.66 1004.91 1005.67 1006.30 1006.80 1007.12 1007.25 1007.48 1007.94 1008.32 1008.87 1009.25 1009.73 1010.29 1011.09 1011.85 1012.43 1013.01 1013.61 1013.96 1014.42 1014.89 1015.24 1015.48 1015.51 1015.73 1015.88 1016.00 1016.18 1016.37 1016.44 1016.46 1016.37 1016.27 1016.22 1016.08 1016.08 1016.21 1016.50 1016.44
1004.97 1006.39 1008.05 1006.76 1006.88 1006.09 1006.38 1005.92 1005.16 1004.99 1005.46 1006.11 1006.63 1006.78 1007.06 1007.23 1007.45 1007.70 1008.04 1008.41 1009.01 1009.52 1010.08 1010.84 1011.36 1012.05 1012.63 1013.18 1013.70 1014.14 1014.51 1014.72 1014.92 1015.03 1015.16 1015.33 1015.54 1015.73 1016.02 1016.25 1016.36 1016.00 1016.01 1016.05 1016.23 1016.32 1016.52 1016.44 1016.55
1006.13 1007.73 1008.79 1007.76 1007.10 1007.12 1007.27 1007.23 1006.44 1006.02 1005.74 1006.04 1006.33 1006.86 1006.93 1007.05 1007.14 1007.43 1007.59 1008.00 1008.66 1009.24 1009.87 1010.44 1010.96 1011.61 1012.10 1012.66 1013.13 1013.58 1013.87 1014.18 1014.39 1014.38 1014.45 1014.62 1014.76 1014.95 1015.34 1015.58 1015.73 1015.63 1015.56 1015.95 1016.01 1015.94 1016.14 1016.08 1016.30
1005.68 1006.60 1007.77 1007.27 1007.03 1007.22 1008.83 1007.85 1007.64 1007.15 1006.88 1006.38 1006.17 1006.46 1006.80 1006.74 1006.77 1006.81 1007.14 1007.62 1008.25 1008.94 1009.47 1010.10 1010.78 1011.24 1011.79 1012.37 1013.01 1013.45 1013.69 1013.94 1013.73 1013.94 1014.03 1014.12 1014.24 1014.45 1014.75 1014.95 1015.17 1015.41 1015.60 1015.78 1015.84 1015.87 1015.98 1015.84 1016.06
1004.71 1005.93 1006.59 1005.92 1006.10 1007.86 1009.04 1008.36 1007.63 1007.30 1007.84 1007.16 1006.37 1006.19 1006.21 1006.39 1006.34 1006.49 1006.68 1007.19 1007.96 1008.60 1009.29 1009.84 1010.51 1010.90 1011.59 1012.43 1013.13 1013.54 1013.60 1013.61 1013.70 1013.55 1013.54 1013.69 1013.77 1013.99 1014.28 1014.67 1014.91 1015.05 1015.28 1015.35 1015.51 1015.67 1015.88 1015.74 1015.97
1004.21 1005.03 1005.60 1005.53 1005.38 1006.87 1009.19 1009.22 1008.66 1007.45 1008.81 1008.10 1005.89 1005.67 1005.46 1005.59 1005.89 1006.27 1006.66 1007.08 1007.72 1008.38 1008.93 1009.50 1009.93 1010.46 1011.07 1011.77 1012.46 1012.99 1013.03 1013.22 1013.16 1013.17 1013.20 1013.18 1013.41 1013.74 1013.96 1014.37 1014.53 1014.80 1014.97 1015.05 1015.17 1015.20 1015.49 1015.63 1015.65
1003.43 1004.21 1004.11 1004.40 1004.38 1005.84 1009.11 1010.95 1010.32 1008.91 1007.78 1007.79 1005.04 1004.70 1004.63 1004.52 1004.89 1005.56 1006.16 1006.52 1007.22 1007.95 1008.59 1009.18 1009.59 1010.18 1010.69 1011.35 1012.08 1012.53 1012.85 1013.05 1013.10 1013.18 1013.18 1013.07 1013.06 1013.12 1013.25 1013.46 1013.89 1014.30 1014.45 1014.71 1014.74 1014.89 1014.96 1015.34 1015.50
1002.52 1003.01 1002.59 1003.22 1003.95 1005.37 1007.35 1009.11 1009.59 1008.84 1007.02 1004.52 1004.01 1004.45 1004.16 1003.84 1003.90 1004.55 1005.25 1005.91 1006.65 1007.31 1008.01 1008.67 1009.02 1009.61 1010.24 1010.76 1011.72 1012.17 1012.42 1012.80 1012.76 1012.71 1012.77 1012.76 1012.64 1012.70 1012.51 1012.70 1013.07 1013.62 1013.86 1014.21 1014.32 1014.48 1014.53 1014.90 1015.36
1001.03 1001.19 1001.92 1002.57 1003.02 1004.41 1005.37 1006.97 1007.77 1007.03 1005.81 1003.74 1002.86 1003.72 1004.23 1003.28 1003.31 1003.67 1004.32 1004.69 1005.30 1006.46 1007.36 1007.91 1008.42 1009.07 1009.64 1010.30 1010.92 1011.70 1012.02 1012.14 1012.11 1012.40 1012.59 1012.49 1012.21 1011.94 1012.06 1012.32 1012.69 1013.13 1013.50 1013.72 1013.98 1014.12 1014.22 1014.56 1014.98
999.89 1000.09 1000.82 1001.93 1003.05 1005.50 1006.72 1006.73 1007.08 1006.48 1005.04 1003.97 1003.81 1004.35 1004.26 1003.75 1003.42 1003.67 1003.65 1004.00 1004.65 1005.75 1006.79 1007.56 1008.06 1008.55 1009.08 1009.72 1010.28 1010.95 1011.53 1011.88 1012.03 1012.04 1012.15 1012.10 1012.11 1012.08 1012.07 1011.97 1012.32 1012.71 1013.13 1013.37 1013.55 1013.93 1014.08 1014.28 1014.58
1000.19 1001.06 1002.35 1003.87 1005.28 1006.26 1005.98 1006.56 1005.72 1004.40 1004.11 1003.86 1005.16 1005.56 1004.26 1004.14 1004.07 1004.22 1004.88 1005.24 1004.91 1005.52 1006.13 1006.91 1007.70 1008.26 1008.74 1009.25 1009.80 1010.53 1011.14 1011.42 1011.70 1011.93 1011.86 1012.00 1012.11 1011.99 1011.92 1011.97 1012.27 1012.52 1012.84 1013.04 1013.35 1013.59 1013.98 1014.18 1014.27
999.80 1001.13 1003.11 1004.97 1006.48 1006.79 1006.18 1005.82 1005.40 1006.07 1005.76 1006.26 1006.12 1005.99 1005.78 1006.52 1004.74 1006.46 1006.67 1007.78 1008.58 1005.29 1005.77 1006.84 1007.78 1008.55 1009.04 1009.33 1009.69 1010.17 1010.58 1010.98 1011.24 1011.33 1011.58 1011.67 1011.85 1011.80 1011.74 1011.82 1011.91 1012.09 1012.51 1012.61 1012.93 1013.26 1013.44 1013.70 1013.78
999.42 1001.11 1002.37 1005.26 1006.57 1007.16 1006.30 1005.87 1005.80 1006.12 1006.86 1006.54 1004.71 1004.49 1004.78 1005.66 1006.03 1007.06 1007.07 1009.51 1007.70 1006.01 1006.53 1007.49 1008.18 1008.61 1008.95 1009.29 1009.55 1010.05 1010.41 1010.66 1010.67 1010.59 1010.67 1011.19 1011.44 1011.54 1011.85 1011.82 1012.27 1012.52 1013.15 1012.79 1013.72 1013.69 1013.55 1013.40 1013.41
998.31 1000.31 1003.16 1005.17 1007.10 1007.88 1006.99 1007.26 1008.09 1008.43 1008.36 1007.01 1005.23 1005.67 1005.22 1005.72 1006.29 1007.49 1007.92 1008.98 1006.65 1006.38 1007.25 1008.35 1008.82 1009.06 1009.29 1009.35 1009.70 1010.44 1010.74 1011.02 1010.96 1010.83 1011.29 1011.52 1011.67 1011.92 1012.02 1012.21 1012.40 1012.84 1013.12 1013.35 1013.53 1014.20 1014.28 1013.45 1012.98
997.97 999.89 1001.38 1004.22 1005.81 1006.70 1007.83 1008.05 1008.12 1007.94 1007.82 1008.21 1008.36 1008.08 1005.53 1005.60 1005.99 1006.66 1007.17 1007.16 1007.08 1007.51 1008.20 1008.87 1009.18 1009.54 1009.90 1010.21 1010.62 1010.99 1011.33 1011.42 1011.50 1011.71 1011.84 1012.04 1012.11 1012.11 1012.07 1012.35 1012.62 1013.33 1013.25 1013.33 1013.15 1014.18 1013.69 1014.19 1013.37
996.75 998.10 999.45 1001.87 1004.28 1005.10 1005.87 1008.10 1008.24 1008.01 1007.93 1007.65 1007.01 1007.50 1006.04 1005.72 1006.01 1006.41 1006.98 1007.23 1007.73 1008.33 1008.77 1009.20 1009.56 1009.90 1010.35 1010.67 1011.02 1011.37 1011.41 1011.55 1011.77 1011.91 1012.02 1012.12 1012.26 1012.32 1012.41 1012.62 1013.11 1013.17 1013.26 1013.19 1013.52 1013.74 1013.77 1013.33 1013.79
Wind_Speed
10 5 6 8 7 4 4 4 8 14 13 17 18 14 15 13 2 5 17 15 20 16 13 14 17 17 17 16 14 14 14 13 12 12 11 12 11 10 10 9 10 10 11 13 13 14 12 12 12
9 21 8 2 5 3 7 7 12 13 17 18 14 16 13 10 13 21 16 22 19 16 12 12 17 17 17 16 13 14 14 13 11 12 11 10 11 10 10 10 10 10 11 10 12 12 12 10 10
2 4 6 3 2 5 7 10 9 13 17 14 8 12 9 11 18 16 22 22 20 15 14 13 17 17 17 16 14 14 13 12 11 10 12 11 12 8 11 9 9 10 8 11 11 11 11 9 9
2 4 3 4 8 8 6 6 9 14 13 16 14 12 10 14 19 22 23 22 19 16 14 16 17 18 17 15 14 13 12 12 12 13 12 12 12 12 11 9 8 8 8 8 7 9 9 6 7
3 3 3 2 7 8 3 7 8 16 16 16 22 18 18 16 25 24 24 21 19 17 15 13 17 17 17 16 14 12 11 13 14 13 11 11 10 10 9 8 8 7 7 5 6 5 7 6 4
4 1 1 3 10 17 5 11 10 15 15 18 22 19 7 21 23 22 21 21 21 19 16 13 17 17 16 16 15 15 13 12 13 11 9 9 8 7 6 7 6 5 5 5 5 4 5 7 4
10 3 4 6 6 7 4 8 5 1 19 16 16 17 9 16 18 18 18 21 18 16 16 13 11 14 17 15 15 14 13 13 12 10 8 7 6 6 10 11 6 3 4 4 4 4 4 5 6
6 4 9 3 10 8 7 5 4 5 15 17 21 7 9 20 14 20 20 20 15 16 14 13 10 7 7 8 15 13 12 12 11 9 7 7 8 6 5 6 6 3 4 5 6 6 6 7 8
3 6 5 6 8 8 14 8 5 10 10 7 3 14 15 21 17 19 17 18 17 15 16 14 13 9 8 7 9 12 13 12 11 9 9 10 4 4 5 6 3 4 8 8 9 9 10 9 11
5 4 9 9 7 9 12 12 9 6 11 18 17 14 14 22 17 18 13 16 17 17 16 15 16 14 12 9 7 7 7 5 5 5 5 3 4 4 5 7 4 8 11 11 10 12 12 12 4
3 4 1 9 9 8 16 12 10 8 5 19 22 18 14 17 13 17 18 19 19 19 14 15 15 14 13 10 7 4 3 4 4 5 4 3 3 2 2 2 3 3 9 5 6 6 4 6 4
5 29 35 10 11 8 9 9 5 7 7 21 20 19 14 8 8 11 18 15 17 15 18 16 15 14 10 8 7 5 5 5 4 4 5 3 2 3 3 2 4 3 3 4 5 4 6 5 5
19 26 11 22 21 14 9 6 6 12 19 20 21 19 16 13 9 8 8 10 17 11 16 18 13 11 11 9 6 5 4 3 4 4 5 4 3 4 3 3 3 4 3 3 2 5 4 5 6
13 27 18 4 14 19 10 6 7 10 17 18 20 17 13 14 11 13 10 9 9 9 15 14 11 13 11 8 8 7 5 5 5 5 6 7 5 4 4 3 3 4 3 2 3 5 4 4 4
22 26 15 9 9 10 14 4 8 6 17 16 15 15 13 13 10 13 10 8 11 11 9 14 13 13 11 11 8 6 6 5 5 5 8 9 7 6 5 4 4 4 4 3 2 3 2 2 2
9 8 4 4 3 8 4 0 4 9 12 12 14 14 15 10 10 10 9 10 12 9 12 14 13 12 9 9 8 6 6 5 5 4 4 7 7 7 6 4 5 5 4 3 3 4 3 3 2
9 3 8 7 2 7 9 3 7 8 9 9 14 13 14 12 9 10 11 9 13 9 10 9 12 13 11 8 7 7 7 5 5 5 4 7 7 7 6 4 5 6 3 2 4 4 3 3 2
9 4 7 8 2 6 13 17 14 13 10 8 9 13 12 12 12 13 11 11 13 13 12 9 10 13 11 7 5 3 4 4 5 4 5 7 5 6 5 4 5 4 4 3 3 3 4 3 3
8 12 13 9 8 8 5 13 15 9 12 8 8 9 9 12 13 14 13 13 14 12 12 10 12 11 8 4 4 3 6 3 3 4 5 5 4 6 6 4 5 4 4 4 5 3 4 2 1
8 8 8 13 11 11 16 15 12 10 8 16 10 13 12 10 14 15 10 13 16 15 13 9 11 13 10 6 5 4 4 4 3 3 5 5 5 6 5 6 6 5 4 5 5 5 2 3 3
8 6 8 12 12 19 12 3 6 6 13 21 1 6 15 13 18 17 16 13 16 15 14 12 11 13 12 10 5 2 1 0 2 2 3 6 7 8 7 8 7 6 5 4 4 3 7 4 2
8 6 22 19 12 8 20 5 10 11 23 8 7 6 13 17 14 18 17 12 20 16 15 16 13 12 9 9 7 7 5 5 4 4 3 5 7 9 9 8 8 7 4 5 5 4 4 3 4
13 19 23 23 4 8 3 5 4 4 6 6 11 6 8 20 16 17 17 16 17 20 17 16 14 12 11 11 8 7 6 5 3 4 6 6 6 7 6 7 7 6 4 4 5 4 5 4 3
5 4 7 5 1 7 0 4 4 6 10 10 6 7 14 10 15 18 18 17 13 20 17 15 16 13 11 12 10 9 8 6 4 4 4 4 4 4 6 6 5 5 5 5 5 5 5 5 4
1 5 4 7 6 2 6 3 9 8 9 16 6 12 34 20 5 8 4 11 9 20 18 15 15 13 11 12 10 7 7 7 7 5 5 4 3 3 5 5 5 3 6 5 5 5 5 6 5
5 5 6 5 3 6 3 3 1 19 16 16 19 15 26 13 17 25 8 16 25 17 16 14 13 9 8 6 7 7 7 4 5 6 4 4 4 4 4 4 6 4 5 2 3 3 4 5 5
6 2 5 4 3 0 3 2 10 16 19 19 5 10 19 16 26 35 12 12 28 11 12 12 9 7 7 8 6 5 4 5 6 4 3 1 2 3 5 5 5 6 6 7 8 6 6 6 5
9 11 4 3 5 4 7 5 4 11 21 24 12 6 11 13 16 16 13 13 5 14 12 12 12 9 6 6 5 5 6 5 5 3 4 6 6 7 5 5 7 7 7 4 6 9 15 7 5
6 5 6 9 6 7 2 3 6 13 13 3 14 18 8 8 11 9 8 12 16 15 14 12 11 11 9 8 7 6 3 3 5 5 4 5 4 2 1 1 5 6 2 4 7 5 18 9 6
10 9 10 7 7 6 7 4 10 11 14 14 7 8 4 7 8 10 13 13 13 13 11 10 8 9 7 6 6 6 5 6 6 6 5 4 3 4 5 3 4 2 2 3 4 6 1 1 3
Wind_Direction
118 105 332 46 42 30 323 40 79 84 73 63 64 74 81 32 187 158 145 140 127 132 138 136 137 137 135 133 132 123 116 124 114 109 105 102 97 96 93 97 96 101 97 112 109 106 113 113 109
132 100 54 50 59 48 339 305 79 89 105 90 59 86 61 72 91 127 131 129 129 130 137 136 140 138 138 138 133 122 126 120 118 118 108 99 103 100 100 94 104 106 101 104 107 110 114 112 113
284 196 128 141 84 185 168 262 123 81 52 105 87 78 70 105 122 131 130 128 129 139 134 142 141 138 137 137 131 123 124 123 117 105 106 112 107 103 106 100 104 101 105 110 114 116 116 113 115
269 54 71 153 160 243 210 91 62 90 77 90 116 76 96 134 123 128 131 131 137 130 127 136 138 139 139 140 134 131 132 126 124 119 115 110 111 111 111 111 110 112 110 103 110 111 118 119 121
81 83 108 245 108 3 100 81 83 116 113 100 100 111 116 136 129 137 141 143 132 127 129 135 139 139 139 139 134 135 135 135 116 106 106 106 109 107 108 106 111 119 119 120 126 136 136 128 139
268 149 351 205 118 124 49 48 34 118 111 111 102 116 126 135 141 145 150 143 134 132 132 138 139 138 140 140 134 129 129 117 111 115 119 112 104 102 107 112 112 119 132 140 132 132 163 154 166
249 143 291 124 108 92 128 104 127 346 118 122 116 110 147 135 140 147 126 119 121 129 137 137 140 144 143 140 140 140 136 132 130 132 131 124 111 85 68 51 16 154 172 175 167 178 193 183 183
213 76 337 304 133 124 147 119 201 222 119 139 133 151 158 143 144 108 114 123 131 137 135 139 140 136 135 147 147 148 147 142 142 146 141 109 98 119 117 73 13 267 221 211 204 204 219 214 218
96 76 332 290 108 139 151 137 157 126 94 98 109 147 143 148 139 128 131 139 143 147 153 150 146 154 153 145 159 160 158 153 156 145 146 118 136 171 181 225 331 264 253 223 217 215 213 219 236
91 106 170 76 106 141 172 143 115 94 117 105 112 128 139 148 151 144 151 152 151 158 160 159 156 166 163 163 168 168 171 156 146 182 175 144 182 208 200 247 280 255 263 240 232 225 217 221 213
140 182 210 72 81 126 92 88 121 123 108 131 140 149 145 150 167 160 160 161 162 165 161 162 162 167 169 170 166 171 152 150 166 184 194 223 212 218 220 281 286 256 247 228 227 233 220 219 223
169 38 345 10 76 88 128 133 126 137 150 134 135 139 157 162 173 156 161 165 152 157 158 165 170 172 165 160 168 158 157 167 162 180 205 199 242 258 274 222 232 238 247 225 236 199 224 210 241
57 81 19 25 14 342 87 139 122 121 121 130 139 151 165 166 182 152 156 157 148 165 161 169 165 155 155 148 138 140 153 160 167 180 203 208 219 245 251 259 266 273 247 218 188 192 187 194 244
102 83 62 350 296 301 348 140 106 129 127 139 147 162 171 173 179 164 171 162 155 159 163 158 146 151 151 148 147 157 161 171 184 193 202 205 204 224 230 249 265 279 260 287 232 204 213 225 244
97 99 152 161 260 281 345 49 120 144 133 144 155 164 173 183 184 169 165 164 160 168 147 149 149 149 151 157 159 156 161 176 208 206 200 202 200 210 207 233 251 259 280 251 265 286 247 206 281
59 93 330 209 224 290 44 63 16 133 143 156 168 173 175 193 181 165 167 168 164 160 154 156 163 165 150 150 155 163 180 184 202 224 200 201 196 198 204 211 238 246 248 237 242 227 237 219 233
25 73 296 295 175 263 38 7 340 323 162 175 170 176 178 188 176 169 174 172 160 156 156 162 153 169 173 166 161 170 185 188 198 212 216 198 198 206 196 211 237 243 240 228 231 218 190 229 218
185 138 236 267 33 122 9 350 334 339 330 189 173 167 184 188 179 173 171 162 149 152 158 148 160 169 175 167 142 160 188 192 211 199 205 206 199 209 210 220 237 249 263 240 216 204 225 221 227
158 124 163 319 243 149 164 174 266 289 325 276 176 168 183 186 180 179 178 160 155 151 156 159 162 182 157 131 147 165 206 216 220 196 202 217 235 227 204 216 235 239 240 204 208 206 207 264 292
168 143 221 224 252 152 161 204 255 347 328 284 197 178 193 187 173 181 182 162 162 165 173 175 167 174 175 157 162 167 178 214 203 188 219 229 227 244 220 204 220 235 244 254 229 204 202 205 162
131 145 232 229 252 183 151 271 218 190 236 257 262 217 184 198 172 179 180 176 174 176 178 181 175 171 170 164 157 109 127 343 157 212 227 235 228 230 220 204 200 223 213 232 247 210 185 197 179
129 170 257 245 232 155 181 127 224 201 217 215 240 233 211 194 180 174 177 181 179 182 180 178 172 172 172 164 152 161 183 195 209 197 210 236 226 224 219 194 195 209 199 220 227 208 190 138 183
211 191 225 239 262 133 61 89 208 282 292 240 262 264 283 188 186 174 177 186 169 177 178 178 176 172 170 175 172 170 191 206 205 182 215 229 239 219 223 198 197 201 211 216 201 203 191 197 162
346 27 335 279 276 82 134 94 205 200 216 242 244 321 290 248 185 175 181 181 155 173 175 175 176 178 169 174 180 182 192 196 207 212 220 223 219 232 223 233 210 193 206 216 193 210 203 204 208
9 49 342 6 27 277 17 79 238 256 196 201 217 88 274 261 175 156 141 168 157 174 180 171 171 173 172 170 178 186 193 205 208 205 208 217 238 226 235 228 224 204 204 206 201 193 209 211 210
188 185 144 172 216 247 321 191 266 77 46 315 286 205 236 130 73 21 347 358 333 175 163 162 158 146 160 163 167 181 203 202 212 217 211 216 216 227 226 243 228 199 255 304 262 213 208 218 212
159 119 109 122 161 164 226 159 40 54 32 306 247 106 92 117 121 179 218 124 254 116 118 126 128 148 163 176 175 183 203 223 230 198 200 208 263 266 52 40 22 46 70 20 341 337 286 214 214
181 160 123 338 104 292 292 4 110 100 128 260 319 24 110 120 142 168 186 212 134 102 101 90 90 94 78 55 101 85 64 49 5 90 32 26 7 30 23 57 67 60 85 92 13 320 303 258 227
241 186 69 106 142 162 256 82 192 178 197 269 322 316 74 107 135 154 114 80 80 82 89 88 84 81 70 62 63 78 78 62 58 76 68 47 50 48 142 101 109 95 136 222 70 254 267 295 291
199 214 177 133 205 222 158 154 144 161 169 180 201 284 64 87 92 87 93 86 81 80 80 87 88 90 88 95 101 93 67 47 49 49 45 61 40 45 46 93 91 58 176 74 176 182 269 309 329